SCP
0 0 0 0 0 0 0 0 0 0 0 0 0 0 0 0 0 0 0 0 0 0 0 0 0 0 0 0 0 0 0 0 0 0 0 0 0 0 0 0 0 0 0
-0 0 0 0 0 0 0 0 0 0 0 0 0 0 0 0 0 0 0 0 0 0 0 0 0 0 0 0 0 0 0 0 0 0 0 0 0 0 0 0 0 0 0
-0 0 0 0 0 0 0 0 0 0 0 0 0 0 0 0 0 0 0 0 0 0 0 0 0 0 0 0 0 0 0 0 0 0 0 0 0 0 0 0 0 0 0
-0 -0 0 0 0 0 -0 0 0 0 0 0 0 0 0 0 0 0 0 0 0 0 0 0 0 0 0 0 0 0 0 0 0 0 0 0 0 0 0 0 0 0 0
-0 -0 0 0 0 0 0 -0 0 0 0 0 0 0 0 0 0 0 0 0 0 0 0 0 0 0 0 0 0 0 0 0 0 0 0 0 0 0 0 0 0 0 0
-0 -0 0 0 0 0 0 0 0 0 0 0 0 0 0 0 0 0 0 0 0 0 0 0 0 0 0 0 0 0 0 0 0 0 0 0 0 0 0 0 0 0 0
-0 -0 -0 0 0 0 0 0 0 0 0 0 0 0 0 0 0 0 0 0 0 0 0 0 0 0 0 0 0 0 0 0 0 0 0 0 0 0 0 0 0 0 0
-0 -0 -0 -0 0 0 0 0 0 0 0 0 0 0 0 0 0 0 0 0 0 0 0 0 0 0 0 0 0 0 0 0 0 0 0 0 0 0 0 0 0 0 0
-0 -0 -0 0 0 0 0 0 0 0 0 0 0 0 0 0 0 0 0 0 0 0 0 0 0 0 0 0 0 0 0 0 0 0 0 0 0 0 0 0 0 0 0
-0 -0 -0 -0 0 0 0 0 0 0 0 0 0 0 0 0 0 0 0 0 0 0 0 0 0 0 0 0 0 0 0 0 0 0 0 0 0 0 0 0 0 0 0
-0 -0 -0 -0 -0 -0 0 0 0 0 0 0 0 0 0 0 0 0 0 0 0 0 0 0 0 0 0 0 0 0 0 0 0 0 0 0 0 0 0 0 0 0 0
-0 -0 -0 -0 -0 -0 -0 0 0 0 0 0 0 0 0 0 0 0 0 0 0 0 0 0 0 0 0 0 0 0 0 0 0 0 0 0 0 0 0 0 0 0 0
-0 -0 -0 -0 -0 -0 -0 0 0 0 0 0 0 0 0 0 0 0 0 0 0 0 0 0 0 0 0 0 0 0 0 0 0 0 0 0 0 0 0 0 0 0 0
-0 -0 -0 -0 -0 -0 -0 -0 0 0 0 0 0 0 0 0 0 0 0 0 0 0 0 0 0 0 0 0 0 0 0 0 0 0 0 0 0 0 0 0 0 0 0
-0 -0 -0 -0 -0 -0 -0 -0 0 0 0 0 0 0 0 0 0 0 0 0 0 0 0 0 0 0 0 0 0 0 0 0 0 0 0 0 0 0 0 0 0 0 0
-0 -0 -0 -0 -0 -0 -0 -0 0 0 0 0 0 0 0 0 0 0 0 0 0 0 0 0 0 0 0 0 0 0 0 0 0 0 0 0 0 0 0 0 0 0 0
-0 -0 -0 -0 -0 -0 -0 -0 0 0 0 0 0 0 0 0 0 0 0 0 0 0 0 0 0 0 0 0 0 0 0 0 0 0 0 0 0 0 0 0 0 0 0
0 -0 -0 -0 -0 -0 -0 0 0 0 0 0 0 0 0 0 0 0 0 0 0 0 0 0 0 0 0 0 0 0 0 0 0 0 0 0 0 0 0 0 0 0 0
0 -0 -0 -0 -0 -0 -0 0 0 0 0 0 0 0 0 0 0 0 0 0 0 0 0 0 0 0 0 0 0 0 0 0 0 0 0 0 0 0 0 0 0 0 0
-0 -0 -0 -0 -0 -0 0 0 0 0 0 0 0 0 0 0 0 0 0 0 0 0 0 0 0 0 0 0 0 0 0 0 0 0 0 0 0 0 0 0 0 0 0
-0 -0 -0 -0 -0 0 0 0 0 0 0 0 0 0 0 0 0 0 0 0 0 0 0 0 0 0 0 0 0 0 0 0 0 0 0 0 0 0 0 0 0 0 0
-0 -0 -0 -0 0 0 0 0 0 0 0 0 0 0 0 0 0 0 0 0 0 0 0 0 0 0 0 0 0 0 0 0 0 0 0 0 0 0 0 0 0 0 0
-0 -0 -0 0 0 0 0 0 0 0 0 0 0 0 0 0 0 0 0 0 0 0 0 0 0 0 0 0 0 0 0 0 0 0 0 0 0 0 0 0 0 0 0
-0 -0 0 0 0 0 0 0 0 0 0 0 0 0 0 0 0 0 0 0 0 0 0 0 0 0 0 0 0 0 0 0 0 0 0 0 0 0 0 0 0 0 0
0 0 0 0 0 0 0 0 0 0 0 0 0 0 0 0 0 0 0 0 0 0 0 0 0 0 0 0 0 0 0 0 0 0 0 0 0 0 0 0 0 0 0
0 0 0 0 0 0 0 0 0 0 0 0 0 0 0 0 0 0 0 0 0 0 0 0 0 0 0 0 0 0 0 0 0 0 0 0 0 0 0 0 0 0 0
Wind_Speed_500mb
36 31 24 27 34 40 44 41 45 48 49 51 56 52 56 51 46 42 38 35 32 29 29 30 33 36 36 33 31 28 22 20 20 16 9 5 10 15 19 19 17 18 20
41 36 32 27 31 37 40 42 43 45 48 50 56 59 59 54 48 44 38 32 30 27 26 30 33 35 36 33 29 24 19 16 13 12 9 7 9 12 14 15 14 16 17
42 38 34 31 31 39 42 41 44 44 47 50 55 58 60 56 51 45 38 33 29 25 24 26 30 32 31 29 27 25 22 19 15 11 11 9 7 11 11 10 11 12 14
47 43 38 36 33 35 43 47 46 43 46 48 51 54 58 57 51 46 42 38 31 26 24 24 25 26 25 25 25 23 20 16 15 12 9 9 7 7 7 5 5 7 9
52 50 45 41 39 38 38 46 51 52 47 46 50 54 57 59 55 50 46 42 36 32 29 27 26 26 25 24 21 19 18 15 13 11 9 6 4 6 5 5 2 1 1
53 54 53 49 45 41 38 41 50 54 49 49 51 55 56 60 58 52 48 46 42 38 33 31 30 29 27 25 22 19 17 14 11 10 8 5 3 5 8 8 7 3 4
53 53 56 53 50 47 41 40 47 52 52 50 53 57 58 60 60 56 52 49 47 43 39 37 34 32 31 28 25 22 19 16 14 12 9 6 4 5 7 8 10 7 4
50 54 56 56 54 52 48 41 45 51 57 54 56 57 60 63 62 59 56 53 51 46 43 40 36 35 34 30 28 24 22 19 16 13 10 6 4 4 6 8 8 9 7
49 54 56 59 60 59 54 47 40 52 58 61 59 61 64 66 65 62 60 57 55 50 47 45 41 38 36 33 29 25 23 22 18 14 11 8 5 2 3 5 6 7 8
51 54 56 58 62 62 57 51 47 47 58 63 64 65 66 68 67 66 64 61 59 55 52 50 49 44 40 36 30 27 24 21 18 16 13 11 7 3 1 4 6 8 8
54 58 57 58 64 64 60 54 50 46 53 62 67 69 71 72 68 70 68 63 61 59 59 56 53 49 44 38 34 29 26 24 21 19 16 13 10 5 1 2 4 7 7
56 60 60 60 63 64 62 58 50 48 50 61 67 73 74 75 70 72 70 64 63 60 57 53 50 48 44 41 37 35 32 29 25 22 19 15 12 8 4 1 2 3 3
58 65 65 65 66 63 62 59 49 52 53 63 69 76 78 77 74 74 71 68 63 61 55 48 47 48 46 45 41 38 35 31 27 24 19 17 14 11 8 5 3 1 1
62 68 70 70 71 69 61 56 50 57 59 66 72 77 79 78 79 79 78 72 66 64 59 54 53 52 51 47 46 44 38 34 27 23 23 22 18 14 10 8 5 3 2
65 70 73 73 73 74 64 55 52 58 62 67 73 75 79 85 88 82 81 81 75 71 67 63 63 64 62 58 53 47 42 39 35 33 28 24 21 17 14 11 8 6 6
70 73 74 76 75 74 67 58 52 54 55 57 62 65 72 73 75 79 80 77 74 73 72 75 75 71 67 63 58 52 48 42 38 34 32 29 24 20 17 13 11 10 9
74 76 77 78 77 75 65 52 53 50 48 54 54 56 61 69 78 79 78 75 72 76 79 77 75 72 67 62 58 53 46 41 39 37 35 30 29 26 22 17 15 13 12
76 77 77 77 78 73 64 52 50 50 53 57 58 56 60 62 69 66 70 72 81 78 77 78 76 70 64 60 55 53 48 45 44 40 39 37 34 30 26 22 20 17 15
76 75 72 74 75 68 59 51 50 51 54 55 56 59 60 56 60 59 66 80 87 85 82 80 74 67 61 54 56 53 50 49 47 44 43 42 40 36 33 29 26 23 21
73 69 67 71 68 63 53 52 52 51 55 57 59 64 67 63 68 70 73 77 83 84 84 79 68 61 67 65 59 56 55 54 53 50 47 46 44 40 36 32 30 26 22
63 62 61 59 61 56 48 50 49 51 54 56 57 61 69 77 77 78 81 80 79 83 87 77 75 68 63 64 61 61 60 59 57 55 51 50 48 46 41 38 33 30 31
55 54 49 50 48 45 45 42 44 49 53 53 53 55 62 72 75 76 77 78 80 82 83 80 80 71 66 66 59 60 62 63 61 59 57 54 50 49 46 42 41 40 37
41 40 40 39 39 40 38 39 43 47 51 51 54 61 69 70 69 71 73 73 69 68 70 71 65 62 64 61 57 56 58 59 57 56 58 59 57 55 52 49 46 43 40
29 30 32 35 36 34 35 39 43 46 50 54 56 59 60 61 60 61 62 60 58 55 54 53 54 55 55 54 55 56 55 57 59 59 60 62 64 59 55 53 49 43 39
21 24 27 29 29 31 34 38 43 47 50 51 53 55 55 52 51 50 48 48 47 47 48 48 47 46 44 44 45 46 49 52 55 59 64 65 64 58 55 54 50 48 46
18 22 26 30 35 39 44 48 49 50 51 53 53 53 51 50 48 47 45 43 43 44 45 46 44 41 39 38 36 35 35 37 40 43 47 53 59 63 60 54 51 49 48
Wind_Direction_500mb
353 343 308 278 264 256 253 254 262 267 258 248 247 248 248 245 246 248 253 258 260 254 243 231 219 212 205 202 200 197 187 186 199 183 167 102 57 46 40 38 37 31 30
347 343 333 300 271 258 250 251 253 259 260 251 246 244 242 241 242 244 249 255 255 248 237 223 211 203 199 197 196 194 185 178 182 163 142 103 72 59 48 45 43 39 32
344 340 333 322 286 264 257 248 249 251 256 254 247 243 240 237 238 240 243 243 245 237 232 221 210 203 197 192 190 186 182 178 172 165 137 114 73 56 46 41 42 39 37
335 335 332 322 311 280 259 251 244 243 250 252 248 242 240 236 235 236 237 236 233 224 216 211 208 202 197 192 186 179 174 167 158 147 130 118 87 69 50 27 43 45 44
331 330 328 323 313 302 274 250 246 240 242 246 246 242 239 235 233 232 232 230 229 223 218 213 206 201 196 191 187 181 178 171 155 141 132 123 97 72 49 36 37 71 75
330 329 327 323 317 309 292 259 242 241 240 237 242 240 238 235 232 230 229 229 227 225 224 217 209 202 196 191 188 187 185 181 166 153 140 132 85 46 28 18 20 359 328
326 328 327 325 319 312 301 274 246 240 239 238 234 239 236 234 232 230 228 226 227 227 223 219 213 203 196 193 190 188 189 188 188 178 163 147 102 47 21 18 17 20 28
321 323 324 325 322 313 308 291 258 238 237 237 234 234 236 232 230 229 228 225 225 224 223 220 214 208 203 201 199 195 194 193 190 184 179 169 141 70 29 18 16 15 8
318 318 321 325 324 317 308 300 276 245 236 236 234 232 233 231 229 227 226 224 224 222 219 216 211 208 206 206 203 197 195 194 190 185 181 177 162 104 33 15 20 12 6
312 316 318 320 320 318 308 303 285 259 240 235 236 233 231 232 230 227 226 223 223 219 217 214 211 208 207 205 202 198 194 194 191 187 188 184 173 163 34 34 24 20 14
309 311 312 315 317 316 309 301 286 271 249 236 235 233 231 230 229 227 226 224 223 220 218 215 211 208 206 201 199 196 193 194 193 190 188 182 178 181 182 44 32 31 29
311 310 309 308 313 315 308 298 284 268 255 242 235 234 230 227 225 225 225 223 223 221 221 217 213 209 205 202 200 199 199 196 194 195 196 195 188 193 199 182 47 39 33
304 307 309 306 310 312 305 295 281 265 256 247 238 234 230 224 221 221 221 221 220 218 216 217 213 210 205 204 202 203 202 200 199 200 200 200 197 204 202 197 197 189 90
298 301 304 304 306 308 302 290 275 261 257 250 242 236 230 223 218 217 217 217 215 214 210 208 209 209 208 207 206 205 203 203 200 200 203 206 207 208 203 200 202 193 167
291 295 299 300 301 304 298 287 272 259 256 253 248 240 232 222 215 215 215 214 210 210 206 205 205 206 207 206 207 207 206 207 205 207 208 208 212 213 210 206 203 194 184
288 292 296 296 296 299 294 286 270 257 257 255 252 246 237 229 219 216 217 219 216 211 205 208 209 211 210 208 209 209 209 208 208 210 209 210 213 216 215 211 207 197 184
284 288 290 291 291 294 287 276 270 260 256 249 244 241 233 224 217 216 219 218 217 213 211 212 214 215 214 213 212 214 213 211 212 213 215 214 216 219 217 214 210 203 200
282 283 284 285 288 288 279 269 260 256 258 247 234 231 230 222 215 215 216 217 216 215 215 215 218 217 217 216 214 214 211 210 213 216 215 216 218 219 220 216 212 208 205
278 278 280 282 283 280 270 261 252 251 252 249 238 222 220 214 205 206 212 216 215 213 209 213 216 218 217 221 219 216 215 216 216 219 219 221 221 219 217 211 209 212 208
273 275 278 279 278 270 261 254 247 244 246 243 236 223 211 200 200 200 206 210 213 214 209 211 212 213 213 220 221 217 216 215 216 218 220 222 224 223 221 219 217 216 214
271 273 275 272 267 261 252 248 240 236 238 236 232 225 213 203 200 200 202 206 208 211 210 213 211 209 214 223 221 220 219 219 219 220 220 221 222 223 221 219 215 212 212
270 271 268 263 260 253 245 240 233 232 230 227 220 217 207 202 202 202 204 205 206 210 213 215 217 215 215 216 220 222 221 221 221 220 219 219 223 223 221 222 219 215 215
263 262 259 258 250 240 237 230 223 221 217 212 208 198 193 198 201 203 206 209 208 211 214 217 218 214 216 218 216 217 220 222 225 224 222 216 219 221 218 225 223 218 216
250 250 247 239 226 216 207 202 198 198 196 192 188 185 187 190 191 194 199 203 205 206 206 207 209 212 214 215 218 223 225 225 224 219 216 214 216 215 219 221 221 217 214
236 227 217 206 194 182 177 171 168 167 168 169 169 170 171 173 175 178 183 187 192 196 198 199 202 205 209 213 216 218 221 222 223 220 216 219 216 209 215 217 217 211 210
189 180 171 161 151 146 145 142 141 142 142 143 145 147 149 152 154 156 159 164 170 176 181 184 187 190 192 193 196 200 203 207 209 211 212 213 211 205 206 210 211 210 213
Wind_Speed_850mb
36 31 24 27 34 40 44 41 45 48 49 51 56 52 56 51 46 42 38 35 32 29 29 30 33 36 36 33 31 28 22 20 20 16 9 5 10 15 19 19 17 18 20
41 36 32 27 31 37 40 42 43 45 48 50 56 59 59 54 48 44 38 32 30 27 26 30 33 35 36 33 29 24 19 16 13 12 9 7 9 12 14 15 14 16 17
42 38 34 31 31 39 42 41 44 44 47 50 55 58 60 56 51 45 38 33 29 25 24 26 30 32 31 29 27 25 22 19 15 11 11 9 7 11 11 10 11 12 14
47 43 38 36 33 35 43 47 46 43 46 48 51 54 58 57 51 46 42 38 31 26 24 24 25 26 25 25 25 23 20 16 15 12 9 9 7 7 7 5 5 7 9
52 50 45 41 39 38 38 46 51 52 47 46 50 54 57 59 55 50 46 42 36 32 29 27 26 26 25 24 21 19 18 15 13 11 9 6 4 6 5 5 2 1 1
53 54 53 49 45 41 38 41 50 54 49 49 51 55 56 60 58 52 48 46 42 38 33 31 30 29 27 25 22 19 17 14 11 10 8 5 3 5 8 8 7 3 4
53 53 56 53 50 47 41 40 47 52 52 50 53 57 58 60 60 56 52 49 47 43 39 37 34 32 31 28 25 22 19 16 14 12 9 6 4 5 7 8 10 7 4
50 54 56 56 54 52 48 41 45 51 57 54 56 57 60 63 62 59 56 53 51 46 43 40 36 35 34 30 28 24 22 19 16 13 10 6 4 4 6 8 8 9 7
49 54 56 59 60 59 54 47 40 52 58 61 59 61 64 66 65 62 60 57 55 50 47 45 41 38 36 33 29 25 23 22 18 14 11 8 5 2 3 5 6 7 8
51 54 56 58 62 62 57 51 47 47 58 63 64 65 66 68 67 66 64 61 59 55 52 50 49 44 40 36 30 27 24 21 18 16 13 11 7 3 1 4 6 8 8
54 58 57 58 64 64 60 54 50 46 53 62 67 69 71 72 68 70 68 63 61 59 59 56 53 49 44 38 34 29 26 24 21 19 16 13 10 5 1 2 4 7 7
56 60 60 60 63 64 62 58 50 48 50 61 67 73 74 75 70 72 70 64 63 60 57 53 50 48 44 41 37 35 32 29 25 22 19 15 12 8 4 1 2 3 3
58 65 65 65 66 63 62 59 49 52 53 63 69 76 78 77 74 74 71 68 63 61 55 48 47 48 46 45 41 38 35 31 27 24 19 17 14 11 8 5 3 1 1
62 68 70 70 71 69 61 56 50 57 59 66 72 77 79 78 79 79 78 72 66 64 59 54 53 52 51 47 46 44 38 34 27 23 23 22 18 14 10 8 5 3 2
65 70 73 73 73 74 64 55 52 58 62 67 73 75 79 85 88 82 81 81 75 71 67 63 63 64 62 58 53 47 42 39 35 33 28 24 21 17 14 11 8 6 6
70 73 74 76 75 74 67 58 52 54 55 57 62 65 72 73 75 79 80 77 74 73 72 75 75 71 67 63 58 52 48 42 38 34 32 29 24 20 17 13 11 10 9
74 76 77 78 77 75 65 52 53 50 48 54 54 56 61 69 78 79 78 75 72 76 79 77 75 72 67 62 58 53 46 41 39 37 35 30 29 26 22 17 15 13 12
76 77 77 77 78 73 64 52 50 50 53 57 58 56 60 62 69 66 70 72 81 78 77 78 76 70 64 60 55 53 48 45 44 40 39 37 34 30 26 22 20 17 15
76 75 72 74 75 68 59 51 50 51 54 55 56 59 60 56 60 59 66 80 87 85 82 80 74 67 61 54 56 53 50 49 47 44 43 42 40 36 33 29 26 23 21
73 69 67 71 68 63 53 52 52 51 55 57 59 64 67 63 68 70 73 77 83 84 84 79 68 61 67 65 59 56 55 54 53 50 47 46 44 40 36 32 30 26 22
63 62 61 59 61 56 48 50 49 51 54 56 57 61 69 77 77 78 81 80 79 83 87 77 75 68 63 64 61 61 60 59 57 55 51 50 48 46 41 38 33 30 31
55 54 49 50 48 45 45 42 44 49 53 53 53 55 62 72 75 76 77 78 80 82 83 80 80 71 66 66 59 60 62 63 61 59 57 54 50 49 46 42 41 40 37
41 40 40 39 39 40 38 39 43 47 51 51 54 61 69 70 69 71 73 73 69 68 70 71 65 62 64 61 57 56 58 59 57 56 58 59 57 55 52 49 46 43 40
29 30 32 35 36 34 35 39 43 46 50 54 56 59 60 61 60 61 62 60 58 55 54 53 54 55 55 54 55 56 55 57 59 59 60 62 64 59 55 53 49 43 39
21 24 27 29 29 31 34 38 43 47 50 51 53 55 55 52 51 50 48 48 47 47 48 48 47 46 44 44 45 46 49 52 55 59 64 65 64 58 55 54 50 48 46
18 22 26 30 35 39 44 48 49 50 51 53 53 53 51 50 48 47 45 43 43 44 45 46 44 41 39 38 36 35 35 37 40 43 47 53 59 63 60 54 51 49 48
Wind_Direction_850mb
353 343 308 278 264 256 253 254 262 267 258 248 247 248 248 245 246 248 253 258 260 254 243 231 219 212 205 202 200 197 187 186 199 183 167 102 57 46 40 38 37 31 30
347 343 333 300 271 258 250 251 253 259 260 251 246 244 242 241 242 244 249 255 255 248 237 223 211 203 199 197 196 194 185 178 182 163 142 103 72 59 48 45 43 39 32
344 340 333 322 286 264 257 248 249 251 256 254 247 243 240 237 238 240 243 243 245 237 232 221 210 203 197 192 190 186 182 178 172 165 137 114 73 56 46 41 42 39 37
335 335 332 322 311 280 259 251 244 243 250 252 248 242 240 236 235 236 237 236 233 224 216 211 208 202 197 192 186 179 174 167 158 147 130 118 87 69 50 27 43 45 44
331 330 328 323 313 302 274 250 246 240 242 246 246 242 239 235 233 232 232 230 229 223 218 213 206 201 196 191 187 181 178 171 155 141 132 123 97 72 49 36 37 71 75
330 329 327 323 317 309 292 259 242 241 240 237 242 240 238 235 232 230 229 229 227 225 224 217 209 202 196 191 188 187 185 181 166 153 140 132 85 46 28 18 20 359 328
326 328 327 325 319 312 301 274 246 240 239 238 234 239 236 234 232 230 228 226 227 227 223 219 213 203 196 193 190 188 189 188 188 178 163 147 102 47 21 18 17 20 28
321 323 324 325 322 313 308 291 258 238 237 237 234 234 236 232 230 229 228 225 225 224 223 220 214 208 203 201 199 195 194 193 190 184 179 169 141 70 29 18 16 15 8
318 318 321 325 324 317 308 300 276 245 236 236 234 232 233 231 229 227 226 224 224 222 219 216 211 208 206 206 203 197 195 194 190 185 181 177 162 104 33 15 20 12 6
312 316 318 320 320 318 308 303 285 259 240 235 236 233 231 232 230 227 226 223 223 219 217 214 211 208 207 205 202 198 194 194 191 187 188 184 173 163 34 34 24 20 14
309 311 312 315 317 316 309 301 286 271 249 236 235 233 231 230 229 227 226 224 223 220 218 215 211 208 206 201 199 196 193 194 193 190 188 182 178 181 182 44 32 31 29
311 310 309 308 313 315 308 298 284 268 255 242 235 234 230 227 225 225 225 223 223 221 221 217 213 209 205 202 200 199 199 196 194 195 196 195 188 193 199 182 47 39 33
304 307 309 306 310 312 305 295 281 265 256 247 238 234 230 224 221 221 221 221 220 218 216 217 213 210 205 204 202 203 202 200 199 200 200 200 197 204 202 197 197 189 90
298 301 304 304 306 308 302 290 275 261 257 250 242 236 230 223 218 217 217 217 215 214 210 208 209 209 208 207 206 205 203 203 200 200 203 206 207 208 203 200 202 193 167
291 295 299 300 301 304 298 287 272 259 256 253 248 240 232 222 215 215 215 214 210 210 206 205 205 206 207 206 207 207 206 207 205 207 208 208 212 213 210 206 203 194 184
288 292 296 296 296 299 294 286 270 257 257 255 252 246 237 229 219 216 217 219 216 211 205 208 209 211 210 208 209 209 209 208 208 210 209 210 213 216 215 211 207 197 184
284 288 290 291 291 294 287 276 270 260 256 249 244 241 233 224 217 216 219 218 217 213 211 212 214 215 214 213 212 214 213 211 212 213 215 214 216 219 217 214 210 203 200
282 283 284 285 288 288 279 269 260 256 258 247 234 231 230 222 215 215 216 217 216 215 215 215 218 217 217 216 214 214 211 210 213 216 215 216 218 219 220 216 212 208 205
278 278 280 282 283 280 270 261 252 251 252 249 238 222 220 214 205 206 212 216 215 213 209 213 216 218 217 221 219 216 215 216 216 219 219 221 221 219 217 211 209 212 208
273 275 278 279 278 270 261 254 247 244 246 243 236 223 211 200 200 200 206 210 213 214 209 211 212 213 213 220 221 217 216 215 216 218 220 222 224 223 221 219 217 216 214
271 273 275 272 267 261 252 248 240 236 238 236 232 225 213 203 200 200 202 206 208 211 210 213 211 209 214 223 221 220 219 219 219 220 220 221 222 223 221 219 215 212 212
270 271 268 263 260 253 245 240 233 232 230 227 220 217 207 202 202 202 204 205 206 210 213 215 217 215 215 216 220 222 221 221 221 220 219 219 223 223 221 222 219 215 215
263 262 259 258 250 240 237 230 223 221 217 212 208 198 193 198 201 203 206 209 208 211 214 217 218 214 216 218 216 217 220 222 225 224 222 216 219 221 218 225 223 218 216
250 250 247 239 226 216 207 202 198 198 196 192 188 185 187 190 191 194 199 203 205 206 206 207 209 212 214 215 218 223 225 225 224 219 216 214 216 215 219 221 221 217 214
236 227 217 206 194 182 177 171 168 167 168 169 169 170 171 173 175 178 183 187 192 196 198 199 202 205 209 213 216 218 221 222 223 220 216 219 216 209 215 217 217 211 210
189 180 171 161 151 146 145 142 141 142 142 143 145 147 149 152 154 156 159 164 170 176 181 184 187 190 192 193 196 200 203 207 209 211 212 213 211 205 206 210 211 210 213